Hourly Data Report for July 14, 1961

All times are specified in Local Standard Time (LST). Add 1 hour to adjust for Daylight Saving Time where and when it is observed.

PENTICTON A
BRITISH COLUMBIA

49°27'47.000" N
119°36'08.000" W
344.40 m
1126150
71889
YYF

Download Data

Hourly Data (July 1961)
Hourly Data Report for July 14, 1961
Temp Definition
°C
Dew Point Temp Definition
°C
Rel Hum Definition
%
Wind Dir Definition
10's deg

Wind Spd Definition
km/h
Visibility Definition
km
Stn Press Definition
kPa
Hmdx Definition


Wind Chill Definition


Weather Definition


TIME
00:00 22.2 11.7 51 32 5 25.0 96.79     Clear
01:00 20.6 11.1 55 32 10 25.0 96.81     Clear
02:00 16.7 12.2 74 23 3 25.0 96.85     Clear
03:00 16.7 11.7 72 5 5 25.0 96.88     Clear
04:00 15.6 11.7 78 5 3 25.0 96.91     Clear
05:00 16.7 11.7 72   0 25.0 96.94     Clear
06:00 20.6 13.9 66   0 25.0 96.94     Mainly Clear
07:00 23.9 15.6 60 14 5 25.0 96.93 28   Mainly Clear
08:00 26.7 12.8 43 16 5 25.0 96.91 29   Mostly Cloudy
09:00 28.9 12.8 37 16 6 25.0 96.86 32   Mostly Cloudy
10:00 30.6 13.3 35 16 5 25.0 96.81 34   Mostly Cloudy
11:00 33.3 13.9 31 2 5 25.0 96.77 37   Mostly Cloudy
12:00 33.3 15.6 34 36 10 25.0 96.76 38   Mostly Cloudy
13:00 33.9 12.8 28   0 25.0 96.75 37   Mostly Cloudy
14:00 35.0 14.4 29 34 8 25.0 96.71 39   Mostly Cloudy
15:00 32.2 16.7 40 20 23 25.0 96.77 37   Thunderstorms,Rain Showers
16:00 27.8 16.7 51 16 23 25.0 96.87 33   Mostly Cloudy
17:00 28.9 15.6 45 16 16 25.0 96.85 33   Mostly Cloudy
18:00 28.9 15.6 45 18 11 25.0 96.81 33   Mainly Clear
19:00 26.1 17.2 55   0 25.0 96.81 32   Mainly Clear
20:00 23.3 16.1 64 7 5 25.0 96.87 28   Mainly Clear
21:00 21.1 14.4 67   0 25.0 96.93 25   Mainly Clear
22:00 17.8 14.4 80 14 5 25.0 96.97     Mainly Clear
23:00 18.9 15.0 77 34 3 25.0 97.04     Clear

Notes on Data Quality.

Legend

  • E = Estimated
  • M = Missing
  • NA = Not Available
  • ‡ = Partner data that is not subject to review by the National Climate Archives
Date modified: